SCP
0 0 0 0 0 0 0 0 0 0 0 0 0 0 0 0 0 0 0 0 0 0 0 0 0 0 0 0 0 0 0 0 0 0 0 0 0 0 0 0 0 0 0
0 0 0 0 0 0 0 0 0 0 0 0 0 0 0 0 0 0 0 0 0 0 0 0 0 0 0 0 0 0 0 0 0 0 0 0 0 0 0 0 0 0 0
0 0 0 0 0 0 0 0 0 0 0 0 0 0 0 0 0 0 0 0 0 0 0 0 0 0 -0 -0 -0 0 -0 0 0 0 0 0 0 0 0 0 0 0 0
0 0 0 0 0 0 0 0 0 0 0 0 0 0 0 0 0 0 0 0 0 0 0 0 0 0 -0 -0 -0 -0 -0 0 0 0 0 0 0 0 0 0 0 0 0
0 0 0 0 0 0 0 0 0 0 0 0 0 0 0 0 0 0 0 0 0 0 0 0 0 0 0 0 -0 -0 0 0 0 0 0 0 0 0 0 0 0 0 0
0 0 0 0 0 0 0 0 0 0 0 0 0 0 0 0 0 0 0 0 0 0 0 0 0 0 0 0 0 0 0 0 0 0 0 0 0 0 0 0 0 0 0
0 0 0 0 0 0 0 0 0 0 0 0 0 0 0 0 0 0 0 0 0 0 0 0 0 0 0 0 0 0 0 0 0 0 0 0 0 0 0 0 0 0 0
0 0 0 0 0 0 0 0 0 0 0 0 0 0 0 0 0 0 0 0 0 0 0 0 0 0 0 0 0 0 0 0 0 0 0 0 0 0 0 0 0 0 0
0 0 0 0 0 0 0 0 0 0 0 0 0 0 0 0 0 0 0 0 0 0 0 0 0 0 0 0 0 0 0 0 0 0 0 0 0 0 0 0 0 0 0
0 0 0 0 0 0 0 0 0 0 0 0 0 0 0 0 0 0 0 0 0 0 0 0 0 0 0 0 0 0 0 0 0 0 0 0 0 0 0 0 0 0 0
0 0 0 0 0 0 0 0 0 0 0 0 0 0 0 0 0 0 0 0 0 0 0 0 0 0 0 0 0 0 0 0 0 0 0 0 0 0 0 0 0 0 0
0 0 0 0 0 0 0 0 0 0 0 0 0 0 0 0 0 0 0 0 0 0 0 0 0 0 0 0 0 0 0 0 0 0 0 0 0 0 0 0 0 0 0
0 0 0 0 0 0 0 0 0 0 0 0 0 0 0 0 0 0 0 0 0 0 0 0 0 0 0 0 0 0 0 0 0 0 0 0 0 0 0 0 0 0 0
0 0 0 0 0 0 0 0 0 0 0 0 0 0 0 0 0 0 0 0 0 0 0 0 0 0 0 0 0 0 0 0 0 0 0 0 0 0 0 0 0 0 0
0 0 0 0 0 0 0 0 0 0 0 0 0 0 0 0 0 0 0 0 0 0 0 0 0 0 0 0 0 0 0 0 0 0 0 0 0 0 0 0 0 0 0
0 0 0 0 0 0 0 0 0 0 0 0 0 0 0 0 0 0 0 0 0 0 0 0 0 0 0 0 0 0 0 0 0 0 0 0 0 0 0 0 0 0 0
0 0 0 0 0 0 0 0 0 0 0 0 0 0 0 0 0 0 0 0 0 0 0 0 0 0 0 0 0 0 0 0 0 0 0 0 0 0 0 0 0 0 0
0 0 0 0 0 0 0 0 0 0 0 0 0 0 0 0 0 0 0 0 0 0 0 0 0 0 0 0 0 0 0 0 0 0 0 0 0 0 0 0 0 0 0
0 0 0 0 0 0 0 0 0 0 0 0 0 0 0 0 0 0 0 0 0 0 0 0 0 0 0 0 0 0 0 0 0 0 0 0 0 0 0 0 0 0 0
0 0 0 0 0 0 0 0 0 0 0 0 0 0 0 0 0 0 0 0 0 0 0 0 0 0 0 0 0 0 0 0 0 0 0 0 0 0 0 0 0 0 0
0 0 0 0 0 0 0 0 0 0 0 0 0 0 0 0 0 0 0 0 0 0 0 0 0 0 0 0 0 0 0 0 0 0 0 0 0 0 0 0 0 0 0
0 0 0 0 0 0 0 0 0 0 0 0 0 0 0 0 0 0 0 0 0 0 0 0 0 0 0 0 0 0 0 0 0 0 0 0 0 0 0 0 0 0 0
0 0 0 0 0 0 0 0 0 0 0 0 0 0 0 0 0 0 0 0 0 0 0 0 0 0 0 0 0 0 0 0 0 0 0 0 0 0 0 0 0 0 0
0 0 0 0 0 0 0 0 0 0 0 0 0 0 0 0 0 0 0 0 0 0 0 0 0 0 0 0 0 0 0 0 0 0 0 0 0 0 0 0 0 0 0
0 0 0 0 0 0 0 0 0 0 0 0 0 0 0 0 0 0 0 0 0 0 0 0 0 0 0 0 0 0 0 0 0 0 0 0 0 0 0 0 0 0 0
0 0 0 0 0 0 0 0 0 0 0 0 0 0 0 0 0 0 0 0 0 0 0 0 0 0 0 0 0 0 0 0 0 0 0 0 0 0 0 0 0 0 0
Wind_Speed_500mb
17 20 20 23 25 26 27 29 32 33 35 37 40 44 43 44 47 48 47 48 50 47 41 42 41 39 43 51 52 53 52 55 56 56 54 53 49 49 49 45 40 40 39
25 28 28 29 32 34 36 39 40 41 42 44 46 47 49 53 55 54 52 51 54 56 51 49 49 44 44 48 47 49 48 49 51 52 52 52 52 49 44 42 40 37 38
30 34 37 37 37 38 42 46 48 50 51 51 53 54 56 59 61 61 58 60 59 55 56 54 51 53 53 53 53 52 53 51 51 52 55 55 52 47 47 43 41 39 42
35 37 39 42 40 41 43 46 50 53 55 55 55 57 59 63 64 64 63 60 61 62 56 52 53 54 55 56 57 58 60 61 62 59 57 57 60 56 51 46 45 46 49
38 42 44 45 43 45 46 50 51 53 55 56 58 64 69 71 73 71 67 58 53 48 50 51 54 57 56 57 62 65 64 65 65 65 66 66 66 64 59 53 54 53 53
44 48 49 48 49 50 49 52 55 54 56 65 67 71 68 66 61 50 43 40 37 36 33 31 36 38 41 45 46 44 51 60 66 67 62 63 68 75 61 63 62 58 53
44 41 45 44 44 46 47 53 57 61 62 62 65 65 65 52 40 39 28 27 26 29 35 42 43 39 38 45 52 50 53 55 68 71 68 55 75 82 49 66 60 53 53
36 30 36 39 43 47 49 51 51 53 54 53 50 46 26 51 23 22 42 44 44 40 43 48 45 44 45 48 53 51 55 62 59 59 60 52 49 52 37 50 46 52 37
33 35 36 39 40 42 42 43 43 42 43 44 34 24 20 16 51 54 51 48 41 47 52 46 46 52 44 47 53 53 59 59 58 56 52 58 54 60 67 60 48 41 34
29 32 33 33 33 33 34 35 35 36 36 39 40 33 28 39 41 39 46 63 54 51 51 57 56 52 55 54 57 59 62 60 56 62 61 62 55 52 51 43 46 40 40
25 27 28 29 31 32 33 36 36 35 36 39 39 44 47 44 40 41 51 51 65 64 65 65 62 59 60 62 64 61 63 62 60 53 54 64 66 45 40 42 38 42 43
24 27 29 30 31 33 35 37 37 39 40 42 44 45 47 48 51 46 59 66 68 77 73 73 71 64 61 60 56 52 53 59 58 57 51 57 58 65 63 54 53 48 39
24 28 31 34 37 40 42 43 44 46 46 48 50 51 50 51 52 56 61 75 70 83 86 83 74 67 59 56 49 48 48 54 58 57 55 47 52 57 49 51 44 44 40
28 31 33 36 39 43 44 45 45 47 48 48 49 50 54 53 53 54 56 57 74 80 87 83 80 67 55 52 48 51 50 54 56 52 50 51 46 53 53 43 43 42 44
25 30 35 40 43 46 48 50 53 54 53 53 54 56 56 55 55 54 55 53 50 51 76 82 70 70 64 67 70 59 54 51 50 49 50 49 46 59 50 49 43 48 46
33 38 42 48 52 56 60 60 60 59 62 61 62 64 64 64 63 60 60 57 51 53 58 91 87 86 80 73 68 61 53 51 46 47 46 46 46 58 57 60 57 43 49
47 54 60 64 66 68 66 65 64 64 65 66 63 65 65 63 64 61 58 57 57 52 64 93 83 82 80 73 68 62 59 55 49 49 47 49 44 45 60 61 55 56 52
59 64 64 64 63 64 66 67 68 67 67 69 69 70 72 72 73 71 69 67 61 55 59 81 86 83 79 73 71 68 59 57 55 49 51 50 48 47 54 61 58 54 60
53 53 55 56 56 55 55 54 56 58 58 59 60 63 65 67 69 70 70 70 67 63 60 69 87 83 80 72 70 68 62 59 56 49 47 51 51 51 58 68 72 65 58
51 49 49 49 50 51 54 56 57 59 60 60 60 61 62 63 66 67 67 66 64 65 64 66 75 79 77 70 67 67 64 57 54 49 45 47 55 55 51 58 69 63 71
48 50 50 47 49 51 54 58 61 64 66 67 66 65 65 65 65 65 66 69 67 66 64 64 70 75 76 69 64 60 59 59 55 51 48 49 53 59 57 65 67 72 73
43 45 46 48 49 51 55 58 64 69 70 71 73 70 68 68 67 65 62 61 57 56 60 63 69 70 70 64 60 59 57 56 61 51 43 44 48 56 62 69 76 78 80
46 47 49 50 51 55 59 62 66 68 69 71 73 76 77 75 72 69 67 66 66 59 47 56 68 72 70 63 60 59 57 58 60 55 52 52 47 57 64 71 80 80 78
48 49 51 54 55 57 63 68 72 73 73 71 70 70 72 73 71 70 74 76 72 67 67 51 55 61 60 61 58 56 56 58 64 61 51 57 54 54 67 73 79 79 80
48 50 54 57 61 63 65 67 70 71 73 73 72 71 72 72 70 64 67 75 77 80 77 66 55 59 56 55 55 51 52 51 63 68 59 59 59 57 64 73 66 62 66
51 53 55 58 60 61 62 64 66 68 73 75 75 79 76 67 69 68 68 72 81 89 81 75 57 58 60 58 53 48 47 47 55 57 55 54 63 56 55 68 68 56 59
Wind_Direction_500mb
288 289 294 295 297 294 297 297 299 301 303 306 309 310 312 312 313 311 318 307 295 295 296 293 296 293 296 301 291 290 288 284 284 283 281 281 278 282 283 278 278 281 279
293 291 291 289 288 291 293 293 293 295 297 301 303 307 308 310 309 307 304 301 300 299 300 292 287 287 286 288 292 292 291 288 286 284 282 281 279 281 273 267 271 270 273
298 299 298 294 294 295 293 293 293 296 297 299 299 303 302 301 300 298 293 295 292 289 290 293 290 285 285 286 290 292 293 291 290 290 290 286 281 276 273 267 269 266 269
294 295 296 299 300 295 294 295 296 296 297 298 299 299 296 296 297 298 290 289 288 289 285 285 285 287 284 283 284 285 287 290 292 291 291 287 279 271 271 265 273 277 267
291 292 295 299 300 296 293 294 296 297 296 298 297 297 300 301 302 298 296 295 293 289 286 283 291 292 287 285 283 284 287 289 290 291 290 289 281 267 268 266 275 276 272
290 288 290 291 291 290 288 286 293 296 300 301 300 301 303 305 306 304 301 297 294 300 300 303 307 303 298 297 302 299 296 295 297 296 296 292 282 263 260 270 269 267 273
284 288 290 291 294 294 297 296 297 297 299 302 307 305 306 312 314 306 306 305 298 295 299 307 301 300 299 301 300 299 306 303 299 298 301 299 297 242 267 264 259 254 263
289 284 286 289 287 288 288 290 295 298 301 305 312 318 320 318 322 309 307 299 302 302 305 310 304 304 303 294 292 297 301 301 305 302 297 306 290 272 262 259 255 257 250
288 288 291 294 297 298 299 300 302 305 307 307 318 314 321 304 308 313 314 307 310 305 306 307 304 305 297 298 301 296 297 296 300 298 294 303 298 279 269 274 249 243 237
298 299 300 302 304 307 308 308 309 309 309 308 309 311 293 289 304 306 293 298 308 304 296 301 299 299 297 297 295 297 295 298 297 300 302 300 293 271 253 246 228 227 224
309 310 311 314 313 311 310 309 308 305 303 301 302 302 300 297 300 293 304 295 293 292 294 299 297 294 294 292 292 292 294 295 296 296 303 294 288 237 250 232 234 228 221
322 320 320 318 316 315 314 312 309 307 304 300 299 298 298 300 298 303 299 297 298 299 299 297 299 303 303 299 295 291 291 295 292 294 292 290 268 263 263 243 230 223 223
319 318 317 318 319 318 317 315 313 311 309 308 307 305 303 300 298 297 295 296 298 299 301 300 304 304 303 301 301 291 286 290 291 297 293 292 283 258 244 231 236 229 209
324 323 325 325 325 325 324 324 323 320 318 314 310 307 305 303 299 297 296 298 302 300 300 302 304 303 304 298 295 291 284 287 291 295 298 292 264 244 235 243 222 230 228
335 335 333 329 326 322 318 317 315 314 313 311 309 307 304 303 300 298 293 291 290 294 300 300 299 302 300 300 301 297 293 293 288 290 288 287 263 248 231 224 221 224 224
330 327 324 323 320 317 315 314 312 310 308 308 306 304 304 303 300 298 295 291 285 281 280 291 294 297 300 301 302 300 295 290 286 282 283 280 267 248 251 239 239 232 218
325 323 321 319 318 316 315 313 311 310 308 307 307 305 304 302 299 297 294 290 286 280 275 288 288 292 295 299 300 299 299 293 280 278 276 274 269 259 243 243 224 219 227
317 316 315 315 314 312 310 309 309 309 308 307 306 305 304 302 300 300 298 295 290 284 279 282 287 289 291 294 296 297 295 293 289 277 275 269 264 249 234 230 226 220 219
316 315 314 313 314 315 314 314 314 313 312 310 309 308 307 305 302 300 298 295 294 290 283 279 285 287 288 289 290 289 292 291 292 289 273 265 260 254 242 237 235 222 226
320 321 324 325 324 323 322 321 318 317 316 314 312 309 308 307 305 304 302 299 296 292 286 279 279 283 286 290 290 293 294 293 292 286 277 265 258 252 244 235 229 221 218
330 331 332 331 328 326 324 323 321 321 320 319 316 313 311 309 306 305 305 303 301 296 291 288 286 289 290 293 294 293 288 289 285 282 279 268 258 252 244 227 229 224 220
334 332 329 330 331 330 330 328 326 325 324 322 320 319 316 312 309 307 306 302 300 301 296 292 289 288 289 293 295 294 293 290 291 287 285 277 262 251 242 232 224 226 226
333 334 334 334 335 334 333 330 327 327 326 325 324 324 322 319 318 318 314 308 305 300 292 289 282 285 291 292 290 287 286 286 287 286 282 277 265 248 239 227 225 228 230
335 337 337 337 337 335 333 331 329 328 327 326 327 326 323 324 325 322 319 314 312 310 307 296 288 284 283 285 286 288 287 281 279 278 272 265 266 252 238 229 226 231 228
335 337 336 336 336 335 332 328 327 327 326 328 327 327 328 324 325 324 316 315 318 315 314 309 296 295 289 291 290 291 287 285 279 273 265 259 255 247 236 224 213 218 216
333 334 334 332 330 330 332 332 332 331 332 333 330 328 328 324 323 322 316 315 309 311 316 313 304 289 287 288 288 286 289 278 271 269 266 250 244 240 225 222 212 206 208
Wind_Speed_850mb
17 20 20 23 25 26 27 29 32 33 35 37 40 44 43 44 47 48 47 48 50 47 41 42 41 39 43 51 52 53 52 55 56 56 54 53 49 49 49 45 40 40 39
25 28 28 29 32 34 36 39 40 41 42 44 46 47 49 53 55 54 52 51 54 56 51 49 49 44 44 48 47 49 48 49 51 52 52 52 52 49 44 42 40 37 38
30 34 37 37 37 38 42 46 48 50 51 51 53 54 56 59 61 61 58 60 59 55 56 54 51 53 53 53 53 52 53 51 51 52 55 55 52 47 47 43 41 39 42
35 37 39 42 40 41 43 46 50 53 55 55 55 57 59 63 64 64 63 60 61 62 56 52 53 54 55 56 57 58 60 61 62 59 57 57 60 56 51 46 45 46 49
38 42 44 45 43 45 46 50 51 53 55 56 58 64 69 71 73 71 67 58 53 48 50 51 54 57 56 57 62 65 64 65 65 65 66 66 66 64 59 53 54 53 53
44 48 49 48 49 50 49 52 55 54 56 65 67 71 68 66 61 50 43 40 37 36 33 31 36 38 41 45 46 44 51 60 66 67 62 63 68 75 61 63 62 58 53
44 41 45 44 44 46 47 53 57 61 62 62 65 65 65 52 40 39 28 27 26 29 35 42 43 39 38 45 52 50 53 55 68 71 68 55 75 82 49 66 60 53 53
36 30 36 39 43 47 49 51 51 53 54 53 50 46 26 51 23 22 42 44 44 40 43 48 45 44 45 48 53 51 55 62 59 59 60 52 49 52 37 50 46 52 37
33 35 36 39 40 42 42 43 43 42 43 44 34 24 20 16 51 54 51 48 41 47 52 46 46 52 44 47 53 53 59 59 58 56 52 58 54 60 67 60 48 41 34
29 32 33 33 33 33 34 35 35 36 36 39 40 33 28 39 41 39 46 63 54 51 51 57 56 52 55 54 57 59 62 60 56 62 61 62 55 52 51 43 46 40 40
25 27 28 29 31 32 33 36 36 35 36 39 39 44 47 44 40 41 51 51 65 64 65 65 62 59 60 62 64 61 63 62 60 53 54 64 66 45 40 42 38 42 43
24 27 29 30 31 33 35 37 37 39 40 42 44 45 47 48 51 46 59 66 68 77 73 73 71 64 61 60 56 52 53 59 58 57 51 57 58 65 63 54 53 48 39
24 28 31 34 37 40 42 43 44 46 46 48 50 51 50 51 52 56 61 75 70 83 86 83 74 67 59 56 49 48 48 54 58 57 55 47 52 57 49 51 44 44 40
28 31 33 36 39 43 44 45 45 47 48 48 49 50 54 53 53 54 56 57 74 80 87 83 80 67 55 52 48 51 50 54 56 52 50 51 46 53 53 43 43 42 44
25 30 35 40 43 46 48 50 53 54 53 53 54 56 56 55 55 54 55 53 50 51 76 82 70 70 64 67 70 59 54 51 50 49 50 49 46 59 50 49 43 48 46
33 38 42 48 52 56 60 60 60 59 62 61 62 64 64 64 63 60 60 57 51 53 58 91 87 86 80 73 68 61 53 51 46 47 46 46 46 58 57 60 57 43 49
47 54 60 64 66 68 66 65 64 64 65 66 63 65 65 63 64 61 58 57 57 52 64 93 83 82 80 73 68 62 59 55 49 49 47 49 44 45 60 61 55 56 52
59 64 64 64 63 64 66 67 68 67 67 69 69 70 72 72 73 71 69 67 61 55 59 81 86 83 79 73 71 68 59 57 55 49 51 50 48 47 54 61 58 54 60
53 53 55 56 56 55 55 54 56 58 58 59 60 63 65 67 69 70 70 70 67 63 60 69 87 83 80 72 70 68 62 59 56 49 47 51 51 51 58 68 72 65 58
51 49 49 49 50 51 54 56 57 59 60 60 60 61 62 63 66 67 67 66 64 65 64 66 75 79 77 70 67 67 64 57 54 49 45 47 55 55 51 58 69 63 71
48 50 50 47 49 51 54 58 61 64 66 67 66 65 65 65 65 65 66 69 67 66 64 64 70 75 76 69 64 60 59 59 55 51 48 49 53 59 57 65 67 72 73
43 45 46 48 49 51 55 58 64 69 70 71 73 70 68 68 67 65 62 61 57 56 60 63 69 70 70 64 60 59 57 56 61 51 43 44 48 56 62 69 76 78 80
46 47 49 50 51 55 59 62 66 68 69 71 73 76 77 75 72 69 67 66 66 59 47 56 68 72 70 63 60 59 57 58 60 55 52 52 47 57 64 71 80 80 78
48 49 51 54 55 57 63 68 72 73 73 71 70 70 72 73 71 70 74 76 72 67 67 51 55 61 60 61 58 56 56 58 64 61 51 57 54 54 67 73 79 79 80
48 50 54 57 61 63 65 67 70 71 73 73 72 71 72 72 70 64 67 75 77 80 77 66 55 59 56 55 55 51 52 51 63 68 59 59 59 57 64 73 66 62 66
51 53 55 58 60 61 62 64 66 68 73 75 75 79 76 67 69 68 68 72 81 89 81 75 57 58 60 58 53 48 47 47 55 57 55 54 63 56 55 68 68 56 59
Wind_Direction_850mb
288 289 294 295 297 294 297 297 299 301 303 306 309 310 312 312 313 311 318 307 295 295 296 293 296 293 296 301 291 290 288 284 284 283 281 281 278 282 283 278 278 281 279
293 291 291 289 288 291 293 293 293 295 297 301 303 307 308 310 309 307 304 301 300 299 300 292 287 287 286 288 292 292 291 288 286 284 282 281 279 281 273 267 271 270 273
298 299 298 294 294 295 293 293 293 296 297 299 299 303 302 301 300 298 293 295 292 289 290 293 290 285 285 286 290 292 293 291 290 290 290 286 281 276 273 267 269 266 269
294 295 296 299 300 295 294 295 296 296 297 298 299 299 296 296 297 298 290 289 288 289 285 285 285 287 284 283 284 285 287 290 292 291 291 287 279 271 271 265 273 277 267
291 292 295 299 300 296 293 294 296 297 296 298 297 297 300 301 302 298 296 295 293 289 286 283 291 292 287 285 283 284 287 289 290 291 290 289 281 267 268 266 275 276 272
290 288 290 291 291 290 288 286 293 296 300 301 300 301 303 305 306 304 301 297 294 300 300 303 307 303 298 297 302 299 296 295 297 296 296 292 282 263 260 270 269 267 273
284 288 290 291 294 294 297 296 297 297 299 302 307 305 306 312 314 306 306 305 298 295 299 307 301 300 299 301 300 299 306 303 299 298 301 299 297 242 267 264 259 254 263
289 284 286 289 287 288 288 290 295 298 301 305 312 318 320 318 322 309 307 299 302 302 305 310 304 304 303 294 292 297 301 301 305 302 297 306 290 272 262 259 255 257 250
288 288 291 294 297 298 299 300 302 305 307 307 318 314 321 304 308 313 314 307 310 305 306 307 304 305 297 298 301 296 297 296 300 298 294 303 298 279 269 274 249 243 237
298 299 300 302 304 307 308 308 309 309 309 308 309 311 293 289 304 306 293 298 308 304 296 301 299 299 297 297 295 297 295 298 297 300 302 300 293 271 253 246 228 227 224
309 310 311 314 313 311 310 309 308 305 303 301 302 302 300 297 300 293 304 295 293 292 294 299 297 294 294 292 292 292 294 295 296 296 303 294 288 237 250 232 234 228 221
322 320 320 318 316 315 314 312 309 307 304 300 299 298 298 300 298 303 299 297 298 299 299 297 299 303 303 299 295 291 291 295 292 294 292 290 268 263 263 243 230 223 223
319 318 317 318 319 318 317 315 313 311 309 308 307 305 303 300 298 297 295 296 298 299 301 300 304 304 303 301 301 291 286 290 291 297 293 292 283 258 244 231 236 229 209
324 323 325 325 325 325 324 324 323 320 318 314 310 307 305 303 299 297 296 298 302 300 300 302 304 303 304 298 295 291 284 287 291 295 298 292 264 244 235 243 222 230 228
335 335 333 329 326 322 318 317 315 314 313 311 309 307 304 303 300 298 293 291 290 294 300 300 299 302 300 300 301 297 293 293 288 290 288 287 263 248 231 224 221 224 224
330 327 324 323 320 317 315 314 312 310 308 308 306 304 304 303 300 298 295 291 285 281 280 291 294 297 300 301 302 300 295 290 286 282 283 280 267 248 251 239 239 232 218
325 323 321 319 318 316 315 313 311 310 308 307 307 305 304 302 299 297 294 290 286 280 275 288 288 292 295 299 300 299 299 293 280 278 276 274 269 259 243 243 224 219 227
317 316 315 315 314 312 310 309 309 309 308 307 306 305 304 302 300 300 298 295 290 284 279 282 287 289 291 294 296 297 295 293 289 277 275 269 264 249 234 230 226 220 219
316 315 314 313 314 315 314 314 314 313 312 310 309 308 307 305 302 300 298 295 294 290 283 279 285 287 288 289 290 289 292 291 292 289 273 265 260 254 242 237 235 222 226
320 321 324 325 324 323 322 321 318 317 316 314 312 309 308 307 305 304 302 299 296 292 286 279 279 283 286 290 290 293 294 293 292 286 277 265 258 252 244 235 229 221 218
330 331 332 331 328 326 324 323 321 321 320 319 316 313 311 309 306 305 305 303 301 296 291 288 286 289 290 293 294 293 288 289 285 282 279 268 258 252 244 227 229 224 220
334 332 329 330 331 330 330 328 326 325 324 322 320 319 316 312 309 307 306 302 300 301 296 292 289 288 289 293 295 294 293 290 291 287 285 277 262 251 242 232 224 226 226
333 334 334 334 335 334 333 330 327 327 326 325 324 324 322 319 318 318 314 308 305 300 292 289 282 285 291 292 290 287 286 286 287 286 282 277 265 248 239 227 225 228 230
335 337 337 337 337 335 333 331 329 328 327 326 327 326 323 324 325 322 319 314 312 310 307 296 288 284 283 285 286 288 287 281 279 278 272 265 266 252 238 229 226 231 228
335 337 336 336 336 335 332 328 327 327 326 328 327 327 328 324 325 324 316 315 318 315 314 309 296 295 289 291 290 291 287 285 279 273 265 259 255 247 236 224 213 218 216
333 334 334 332 330 330 332 332 332 331 332 333 330 328 328 324 323 322 316 315 309 311 316 313 304 289 287 288 288 286 289 278 271 269 266 250 244 240 225 222 212 206 208